Showing default

ANNA 1B, 446

Orbit data source: Space-Track

ANNA 1B, 446 is a payload satellite owned by USN BuWeps (US) in LEO that was launched on Wed, 31 Oct 1962 UTC via a THOR ABLESTAR launch vehicle from the Air Force Eastern Test Range (AFETR). Payload-class satellites include a variety of spacecraft equipped with specific instruments for various scientific and technological missions. These include communications satellites like Starlink; space stations such as the ISS; scientific satellites like the Hubble; Earth observation satellites from companies like Planet Labs, Umbra, and HawkEye 360; GPS; miniature CubeSats for education and research; and military/defense satellites.

Loading next visibility...
Identifier
446, 1962-060A
Orbit
LEO
Country
Flag of USUS
Related business
Manufacturer
APL
Mission
Spacecraft
Bus & Motor
TRANSIT 1, Unknown motor
Mass
157 kg wet, 157 kg dry
Launch date (UTC)
1962-10-31 (63 years ago)
Launch vehicle
THOR ABLESTAR
Launch site
Air Force Eastern Test Range (AFETR)
Object type
Payload
Rocket body
Debris
Shape & HBR
Unknown
Radar Cross Section
Medium (>0.1 m² and <1 m²)

Expand to show TLE details & history
Last TLE update: 1 day ago

TLE from 1 day ago
0 ANNA 1B
1 00446U 62060A   25306.19044145 -.00000111  00000-0  31294-4 0  9999
2 00446  50.1400  95.6666 0070296  61.8705 109.2839 13.35354058 73374
Epoch: 2025-11-02T04:34Z
TLE epoch observation values (Epoch: 2025-11-02T04:34:14.141Z)
Latitude
6.1672°
Longitude
160.2481°
Altitude
1,144.321 km
Speed
7.274 km/s
True Right ascension
18h 02m 04s
True Declination
6° 07' 57"
Sunlit
Object was in daylight at epoch
Visualization orbit readout
Latitude
Unknown
Longitude
Unknown
Altitude
Unknown
Speed
Unknown
Apparent Right ascension
Unknown
Apparent Declination
Unknown
Sunlit
N/A
Visualization observer readout
Local Sidereal Time
00:51:21
Azimuth
Unknown
Elevation
Unknown
Doppler factor
Unknown
Orbital elements
Apogee altitude
1,180.083 km
Perigee altitude
1,074.562 km
Semi-major axis
7,505.459 km
Eccentricity
0.00703
Inclination
50.14°
RAAN
95.6666°
Arg. of periapsis
61.8705°
True anomaly
110.04202°
Mean anomaly
109.2839°
Eccentric anomaly
109.66318°
Mean motion
3.33793 °/min
Orbital period
107.85 mins
BSTAR
0.000031294
Loading maneuver chart data...
Computing Atmospheric mass density...
Loading historical data...
Loading historical data...
Loading historical data...
Loading historical data...
Loading historical data...
Loading historical data...
Loading historical data...
Other satellites on launch #60 in the year 1962 (1962-10-31 UTC)

Documentation

Showing up to 5 results
|